Home   Weather   Talkeetna   Past weeks

Flag for USA Past Weather in Talkeetna, Alaska, USA — Yesterday and Last 2 Weeks

Now
-27 °F

Clear.


Feels Like: -39 °F
Forecast: -27 / -13 °F
Wind: 3 mph from Northeast

Location: Talkeetna Weather Reporting Station

Current Time: Jan 18, 2017 at 1:33:29 am

Latest Report: Jan 18, 2017 at 12:53 am


Visibility: 10 mi

Pressure: 29.35 "Hg

Humidity: 72%

Dew Point: -33 °F

Location of TalkeetnaLocation

Past Weather in Talkeetna — Graph

°F

Talkeetna Temperature Yesterday

Maximum temperature yesterday: 7 °F (at 12:53 am)
Minimum temperature yesterday: -26 °F (at 11:53 pm)
Average temperature yesterday: -7 °F

High & Low Weather Summary for the Past Weeks

 TemperatureHumidityPressure
High27 °F (Jan 14, 11:53 am)92% (Jan 13, 9:16 pm)30.78 "Hg (Jan 13, 9:16 pm)
Low-26 °F (Jan 17, 11:53 pm)32% (Jan 6, 3:53 pm)28.73 "Hg (Jan 16, 2:34 pm)
Average6 °F74%29.82 "Hg
* Reported Jan 2 11:53 pm — Jan 17 11:53 pm, Talkeetna, Weather by CustomWeather, © 2017

Note: Actual official high and low records may vary slightly from our data, if they occured in-between our weather recording intervals... More about our weather records

Advertising

Talkeetna Weather History for the Previous 24 Hours

Scroll right to see more
 ConditionsComfort  
Time TempWeatherWind HumidityBarometerVisibility
11:53 pm
Tue, Jan 17
-26 °FClear.3 mph76%29.36 "Hg10 mi
10:53 pm-25 °FClear.No wind77%29.36 "Hg10 mi
9:53 pm-23 °FClear.No wind77%29.36 "Hg10 mi
8:53 pm-21 °FClear.No wind72%29.37 "Hg10 mi
7:53 pm-19 °FClear.3 mph77%29.36 "Hg10 mi
6:53 pm-12 °FClear.3 mph81%29.36 "Hg10 mi
5:53 pm-15 °FClear.3 mph77%29.36 "Hg10 mi
4:53 pm-11 °FClear.No wind78%29.36 "Hg10 mi
3:53 pm-5 °FSunny.No windN/A29.36 "Hg10 mi
2:53 pm-3 °FScattered clouds.No wind75%29.37 "Hg10 mi
2:14 pm-2 °FScattered clouds.No wind75%29.33 "Hg10 mi
1:53 pm-3 °FOvercast.No wind75%29.36 "Hg10 mi
1:21 pm-3 °FPartly sunny.No windN/A29.33 "Hg10 mi
12:53 pm-4 °FPassing clouds.No windN/A29.36 "Hg10 mi
11:53 amN/AOvercast.3 mphN/A29.36 "Hg10 mi
11:29 am-13 °FPartly sunny.No wind78%29.33 "Hg7 mi
10:53 am-14 °FPassing clouds.No wind78%29.35 "Hg9 mi
9:53 am-14 °FClear.No wind78%29.33 "Hg10 mi
9:09 am-11 °FOvercast.3 mph78%29.28 "Hg9 mi
8:53 am-12 °FPassing clouds.No wind81%29.31 "Hg8 mi
7:53 amN/APassing clouds.No windN/A29.28 "Hg10 mi
6:53 am-7 °FOvercast.No wind83%29.26 "Hg9 mi
5:53 am-2 °FMostly cloudy.3 mph86%29.23 "Hg8 mi
5:07 am2 °FLight snow. Mostly cloudy.No wind80%29.19 "Hg3 mi
5:01 am2 °FLight snow. Ice fog.No wind83%29.19 "Hg2 mi
4:35 am3 °FLight snow. Ice fog.5 mph87%29.18 "Hg2 mi
3:53 am5 °FLight snow. Ice fog.No wind83%29.18 "Hg3 mi
3:33 am6 °FLight snow. Ice fog.No wind83%29.15 "Hg3 mi
3:17 am5 °FLight snow. Ice fog.No wind83%29.15 "Hg2 mi
2:53 am6 °FLight snow. Ice fog.No wind83%29.15 "Hg4 mi
1:53 am6 °FMostly cloudy.No wind83%29.13 "Hg8 mi
Weather by CustomWeather, © 2017

See weather overviewHow to use our weather pages